sat.trackr.live / text

‹ back to catalog

ZIYUAN 1-02C (ZY 1-02C)

NORAD 38038 · 2011-079A

PAYLOAD ACTIVE UNKNOWN

§ Identity

Operator
Country
PRC
Launch date
2011-12-22
Launch site
TAISC
Launch vehicle
Mass (kg)
RCS (m²)
4.56

Purposes: earth_obs

External: N2YO · Heavens-Above · Gunter

§ Orbital elements

Epoch: 2026-09-20T04:21:07.604928Z

Period
100.12 min
Inclination
98.3981°
Eccentricity
0.0007067
Mean motion
14.38275984 rev/d
Perigee alt
759.2 km
Apogee alt
769.2 km
Semi-major
7,142.3 km
B*
8.6886e-5
RAAN
328.4638°
Arg perigee
32.6084°
Mean anomaly
52.8820°
Rev number
77,286

§ Raw data

ZIYUAN 1-02C (ZY 1-02C)1 38038U 11079A   26263.18133802  .00000221  00000+0  86886-4 0  99992 38038  98.3981 328.4638 0007067  32.6084  52.8820 14.38275984772865

JSON: /api/v1/satellites/38038 · /tle

For live sub-satellite position, see the globe view (requires WebGL).

§ Visibility from observer

Set your observer location to see the next 7 days of passes ≥ 10°. The values pass through the URL so the page stays shareable.

No JS? Fill the form by hand. The geolocation button needs JavaScript.

§ Radio — SatNOGS DB

ModeDescriptionDownlinkUplink
BPSK S-band telemetry 2.226 GHz

1 transmitter · refreshed weekly from db.satnogs.org